Time,TemperatureF,DewpointF,PressureIn,WindDirection,WindDirectionDegrees,WindSpeedMPH,WindSpeedGustMPH,Humidity,HourlyPrecipIn,Conditions,Clouds,dailyrainin,SoftwareType,DateUTC
2013-05-31 00:00:00,68.1,58.3,30.43,South,180,1.3,2.7,71,0.00,,CLR,0.00,VWS V13.01,2013-05-31 04:00:00,
2013-05-31 00:01:00,68.1,58.3,30.43,South,180,1.3,2.7,71,0.00,,CLR,0.00,VWS V13.01,2013-05-31 04:01:00,
2013-05-31 00:02:00,68.0,58.3,30.43,South,180,1.3,2.7,71,0.00,,CLR,0.00,VWS V13.01,2013-05-31 04:02:00,
2013-05-31 00:07:00,67.8,58.3,30.43,South,180,1.3,2.7,72,0.00,,CLR,0.00,VWS V13.01,2013-05-31 04:07:00,
2013-05-31 00:12:00,67.8,58.5,30.43,SSW,202,1.3,2.7,72,0.00,,CLR,0.00,VWS V13.01,2013-05-31 04:12:00,
2013-05-31 00:17:00,67.8,58.8,30.43,SSW,202,1.3,2.7,72,0.00,,CLR,0.00,VWS V13.01,2013-05-31 04:17:00,
2013-05-31 00:22:00,67.8,58.5,30.43,South,180,2.6,2.7,73,0.00,,CLR,0.00,VWS V13.01,2013-05-31 04:22:00,
2013-05-31 00:27:00,67.8,58.5,30.43,South,180,2.6,2.7,72,0.00,,CLR,0.00,VWS V13.01,2013-05-31 04:27:00,
2013-05-31 00:32:00,67.6,58.3,30.43,South,180,2.6,2.7,72,0.00,,CLR,0.00,VWS V13.01,2013-05-31 04:32:00,
2013-05-31 00:37:00,67.6,58.1,30.43,South,180,2.6,2.7,72,0.00,,CLR,0.00,VWS V13.01,2013-05-31 04:37:00,
2013-05-31 00:42:00,67.2,57.9,30.44,South,180,2.6,2.7,72,0.00,,CLR,0.00,VWS V13.01,2013-05-31 04:42:00,
2013-05-31 00:47:00,67.1,57.6,30.43,South,180,2.6,2.7,72,0.00,,CLR,0.00,VWS V13.01,2013-05-31 04:47:00,
2013-05-31 00:52:00,66.9,58.0,30.43,South,180,2.6,2.7,72,0.00,,CLR,0.00,VWS V13.01,2013-05-31 04:52:00,
2013-05-31 00:57:00,66.9,58.0,30.44,SSW,202,0.4,2.7,73,0.00,,CLR,0.00,VWS V13.01,2013-05-31 04:57:00,
2013-05-31 01:02:00,66.9,58.0,30.43,South,180,0.4,2.7,73,0.00,,CLR,0.00,VWS V13.01,2013-05-31 05:02:00,
2013-05-31 01:08:00,66.9,58.0,30.43,South,180,0.4,2.7,73,0.00,,CLR,0.00,VWS V13.01,2013-05-31 05:08:00,
2013-05-31 01:13:00,66.9,58.0,30.43,South,180,0.4,2.7,73,0.00,,CLR,0.00,VWS V13.01,2013-05-31 05:13:00,
2013-05-31 01:18:00,66.7,57.8,30.44,South,180,0.4,2.7,73,0.00,,CLR,0.00,VWS V13.01,2013-05-31 05:18:00,
2013-05-31 01:23:00,66.5,57.8,30.44,South,180,0.4,2.7,73,0.00,,CLR,0.00,VWS V13.01,2013-05-31 05:23:00,
2013-05-31 01:28:00,66.7,57.3,30.43,South,180,0.4,2.7,73,0.00,,CLR,0.00,VWS V13.01,2013-05-31 05:28:00,
2013-05-31 01:33:00,66.0,57.1,30.44,South,180,0.4,2.7,73,0.00,,CLR,0.00,VWS V13.01,2013-05-31 05:33:00,
2013-05-31 01:38:00,65.6,56.9,30.44,South,180,0.4,2.7,73,0.00,,CLR,0.00,VWS V13.01,2013-05-31 05:38:00,
2013-05-31 01:43:00,65.4,56.8,30.43,South,180,0.4,2.7,73,0.00,,CLR,0.00,VWS V13.01,2013-05-31 05:43:00,
2013-05-31 01:48:00,64.9,56.6,30.43,South,180,0.4,2.7,74,0.00,,CLR,0.00,VWS V13.01,2013-05-31 05:48:00,
2013-05-31 01:53:00,64.5,56.6,30.43,South,180,0.4,2.7,74,0.00,,CLR,0.00,VWS V13.01,2013-05-31 05:53:00,
2013-05-31 01:58:00,64.2,56.0,30.43,South,180,0.4,2.7,74,0.00,,CLR,0.00,VWS V13.01,2013-05-31 05:58:00,
2013-05-31 02:03:00,64.0,56.0,30.43,South,180,0.4,2.7,75,0.00,,CLR,0.00,VWS V13.01,2013-05-31 06:03:00,
2013-05-31 02:08:00,64.5,55.5,30.43,South,180,0.4,2.7,74,0.00,,CLR,0.00,VWS V13.01,2013-05-31 06:08:00,
2013-05-31 02:13:00,63.5,55.5,30.43,South,180,0.4,2.7,75,0.00,,CLR,0.00,VWS V13.01,2013-05-31 06:13:00,
2013-05-31 02:18:00,63.3,55.4,30.43,South,180,0.4,2.7,75,0.00,,CLR,0.00,VWS V13.01,2013-05-31 06:18:00,
2013-05-31 02:23:00,63.1,55.2,30.43,South,180,0.4,2.7,76,0.00,,CLR,0.00,VWS V13.01,2013-05-31 06:23:00,
2013-05-31 02:28:00,63.1,55.2,30.43,South,180,0.4,2.7,76,0.00,,CLR,0.00,VWS V13.01,2013-05-31 06:28:00,
2013-05-31 02:33:00,63.1,55.4,30.43,South,180,0.4,2.7,76,0.00,,CLR,0.00,VWS V13.01,2013-05-31 06:33:00,
2013-05-31 02:38:00,63.1,55.3,30.43,South,180,0.4,2.7,76,0.00,,CLR,0.00,VWS V13.01,2013-05-31 06:38:00,
2013-05-31 02:43:00,62.4,55.1,30.43,South,180,0.4,2.7,77,0.00,,CLR,0.00,VWS V13.01,2013-05-31 06:43:00,
2013-05-31 02:48:00,62.4,55.1,30.43,South,180,0.4,2.7,77,0.00,,CLR,0.00,VWS V13.01,2013-05-31 06:48:00,
2013-05-31 02:53:00,62.4,55.5,30.43,South,180,0.4,2.7,77,0.00,,CLR,0.00,VWS V13.01,2013-05-31 06:53:00,
2013-05-31 02:58:00,62.2,55.5,30.43,South,180,0.4,2.7,78,0.00,,CLR,0.00,VWS V13.01,2013-05-31 06:58:00,
2013-05-31 03:03:00,62.2,55.1,30.43,South,180,0.4,2.7,78,0.00,,CLR,0.00,VWS V13.01,2013-05-31 07:03:00,
2013-05-31 03:08:00,62.2,54.9,30.43,South,180,0.4,2.7,78,0.00,,CLR,0.00,VWS V13.01,2013-05-31 07:08:00,
2013-05-31 03:13:00,61.8,55.1,30.43,South,180,0.4,2.7,78,0.00,,CLR,0.00,VWS V13.01,2013-05-31 07:13:00,
2013-05-31 03:18:00,61.5,54.9,30.42,South,180,0.4,2.7,79,0.00,,CLR,0.00,VWS V13.01,2013-05-31 07:18:00,
2013-05-31 03:23:00,61.5,54.7,30.42,South,180,0.4,2.7,79,0.00,,CLR,0.00,VWS V13.01,2013-05-31 07:23:00,
2013-05-31 03:28:00,61.3,54.7,30.42,South,180,0.4,2.7,79,0.00,,CLR,0.00,VWS V13.01,2013-05-31 07:28:00,
2013-05-31 03:33:00,60.9,54.5,30.43,South,180,0.4,2.7,79,0.00,,CLR,0.00,VWS V13.01,2013-05-31 07:33:00,
2013-05-31 03:38:00,60.9,54.3,30.43,South,180,0.4,2.7,79,0.00,,CLR,0.00,VWS V13.01,2013-05-31 07:38:00,
2013-05-31 03:43:00,60.6,54.1,30.43,South,180,0.4,2.7,79,0.00,,CLR,0.00,VWS V13.01,2013-05-31 07:43:00,
2013-05-31 03:48:00,60.6,54.4,30.43,South,180,0.4,2.7,79,0.00,,CLR,0.00,VWS V13.01,2013-05-31 07:48:00,
2013-05-31 03:53:00,60.6,54.2,30.43,South,180,0.4,2.7,80,0.00,,CLR,0.00,VWS V13.01,2013-05-31 07:53:00,
2013-05-31 03:58:00,60.4,54.2,30.43,South,180,0.4,2.7,80,0.00,,CLR,0.00,VWS V13.01,2013-05-31 07:58:00,
2013-05-31 04:03:00,60.4,54.2,30.43,South,180,0.4,2.7,80,0.00,,CLR,0.00,VWS V13.01,2013-05-31 08:03:00,
2013-05-31 04:08:00,60.4,54.0,30.43,South,180,0.4,2.7,80,0.00,,CLR,0.00,VWS V13.01,2013-05-31 08:08:00,
2013-05-31 04:13:00,60.4,53.8,30.43,South,180,0.4,2.7,80,0.00,,CLR,0.00,VWS V13.01,2013-05-31 08:13:00,
2013-05-31 04:18:00,60.0,54.2,30.43,South,180,0.4,2.7,80,0.00,,CLR,0.00,VWS V13.01,2013-05-31 08:18:00,
2013-05-31 04:23:00,60.0,54.1,30.43,South,180,0.4,2.7,80,0.00,,CLR,0.00,VWS V13.01,2013-05-31 08:23:00,
2013-05-31 04:28:00,59.7,53.9,30.43,South,180,0.4,2.7,81,0.00,,CLR,0.00,VWS V13.01,2013-05-31 08:28:00,
2013-05-31 04:33:00,59.7,53.7,30.43,South,180,0.4,2.7,81,0.00,,CLR,0.00,VWS V13.01,2013-05-31 08:33:00,
2013-05-31 04:38:00,59.7,53.7,30.43,South,180,0.4,2.7,81,0.00,,CLR,0.00,VWS V13.01,2013-05-31 08:38:00,
2013-05-31 04:43:00,59.5,53.8,30.43,South,180,0.4,2.7,81,0.00,,CLR,0.00,VWS V13.01,2013-05-31 08:43:00,
2013-05-31 04:48:00,59.3,53.8,30.43,South,180,0.4,2.7,82,0.00,,CLR,0.00,VWS V13.01,2013-05-31 08:48:00,
2013-05-31 04:53:00,59.3,53.6,30.43,South,180,0.4,2.7,82,0.00,,CLR,0.00,VWS V13.01,2013-05-31 08:53:00,
2013-05-31 04:58:00,59.1,53.8,30.43,South,180,0.4,2.7,82,0.00,,CLR,0.00,VWS V13.01,2013-05-31 08:58:00,
2013-05-31 05:03:00,59.3,53.5,30.43,South,180,0.4,2.7,82,0.00,,CLR,0.00,VWS V13.01,2013-05-31 09:03:00,
2013-05-31 05:08:00,59.3,53.3,30.42,South,180,0.4,2.7,82,0.00,,CLR,0.00,VWS V13.01,2013-05-31 09:08:00,
2013-05-31 05:13:00,58.8,53.3,30.42,South,180,0.4,2.7,82,0.00,,CLR,0.00,VWS V13.01,2013-05-31 09:13:00,
2013-05-31 05:18:00,58.8,53.7,30.42,South,180,0.4,2.7,82,0.00,,CLR,0.00,VWS V13.01,2013-05-31 09:18:00,
2013-05-31 05:23:00,58.8,53.7,30.43,South,180,0.4,2.7,82,0.00,,CLR,0.00,VWS V13.01,2013-05-31 09:23:00,
2013-05-31 05:28:00,58.8,53.5,30.42,South,180,0.4,2.7,82,0.00,,CLR,0.00,VWS V13.01,2013-05-31 09:28:00,
2013-05-31 05:33:00,58.6,53.5,30.43,South,180,0.4,2.7,83,0.00,,CLR,0.00,VWS V13.01,2013-05-31 09:33:00,
2013-05-31 05:38:00,58.6,53.5,30.42,South,180,0.4,2.7,83,0.00,,CLR,0.00,VWS V13.01,2013-05-31 09:38:00,
2013-05-31 05:43:00,58.6,53.1,30.42,South,180,0.4,2.7,83,0.00,,,0.00,VWS V13.01,2013-05-31 09:43:00,
2013-05-31 05:48:00,58.6,53.1,30.42,South,180,0.4,2.7,83,0.00,,,0.00,VWS V13.01,2013-05-31 09:48:00,
2013-05-31 05:53:00,58.1,53.1,30.42,South,180,0.4,2.7,84,0.00,,,0.00,VWS V13.01,2013-05-31 09:53:00,
2013-05-31 05:58:00,58.1,53.0,30.43,South,180,0.4,2.7,84,0.00,,,0.00,VWS V13.01,2013-05-31 09:58:00,
2013-05-31 06:04:00,58.1,53.3,30.42,South,180,0.4,2.7,84,0.00,,,0.00,VWS V13.01,2013-05-31 10:04:00,
2013-05-31 06:09:00,57.9,53.1,30.42,South,180,0.4,2.7,84,0.00,,,0.00,VWS V13.01,2013-05-31 10:09:00,
2013-05-31 06:14:00,57.9,53.1,30.42,South,180,0.4,2.7,84,0.00,,,0.00,VWS V13.01,2013-05-31 10:14:00,
2013-05-31 06:19:00,57.9,53.1,30.42,South,180,0.4,2.7,84,0.00,,,0.00,VWS V13.01,2013-05-31 10:19:00,
2013-05-31 06:24:00,57.9,52.9,30.42,South,180,0.4,2.7,84,0.00,,,0.00,VWS V13.01,2013-05-31 10:24:00,
2013-05-31 06:29:00,57.7,52.9,30.42,South,180,0.4,2.7,84,0.00,,,0.00,VWS V13.01,2013-05-31 10:29:00,
2013-05-31 06:34:00,57.9,53.1,30.42,South,180,0.4,2.7,84,0.00,,,0.00,VWS V13.01,2013-05-31 10:34:00,
2013-05-31 06:39:00,57.9,53.4,30.42,South,180,0.4,2.7,84,0.00,,,0.00,VWS V13.01,2013-05-31 10:39:00,
2013-05-31 06:44:00,57.9,53.4,30.42,South,180,0.4,2.7,85,0.00,,,0.00,VWS V13.01,2013-05-31 10:44:00,
2013-05-31 06:49:00,57.9,53.4,30.43,South,180,0.4,2.7,85,0.00,,,0.00,VWS V13.01,2013-05-31 10:49:00,
2013-05-31 06:54:00,57.9,53.4,30.43,South,180,0.4,2.7,85,0.00,,,0.00,VWS V13.01,2013-05-31 10:54:00,
2013-05-31 06:59:00,57.9,53.6,30.42,South,180,0.4,2.7,85,0.00,,,0.00,VWS V13.01,2013-05-31 10:59:00,
2013-05-31 07:04:00,57.9,53.4,30.43,South,180,0.4,2.7,85,0.00,,,0.00,VWS V13.01,2013-05-31 11:04:00,
2013-05-31 07:09:00,58.1,53.4,30.43,South,180,0.4,2.7,86,0.00,,,0.00,VWS V13.01,2013-05-31 11:09:00,
2013-05-31 07:15:00,57.9,54.0,30.43,South,180,0.4,2.7,85,0.00,,,0.00,VWS V13.01,2013-05-31 11:15:00,
2013-05-31 07:20:00,58.1,54.0,30.42,South,180,0.4,2.7,86,0.00,,,0.00,VWS V13.01,2013-05-31 11:20:00,
2013-05-31 07:25:00,58.1,54.0,30.43,South,180,0.4,2.7,86,0.00,,,0.00,VWS V13.01,2013-05-31 11:25:00,
2013-05-31 07:30:00,58.4,54.6,30.43,NE,45,0.4,2.7,86,0.00,,,0.00,VWS V13.01,2013-05-31 11:30:00,
2013-05-31 07:35:00,59.0,54.6,30.43,NE,45,0.4,2.7,86,0.00,,,0.00,VWS V13.01,2013-05-31 11:35:00,
2013-05-31 07:40:00,59.3,54.9,30.43,NE,45,0.4,2.7,87,0.00,,,0.00,VWS V13.01,2013-05-31 11:40:00,
2013-05-31 07:45:00,59.7,54.9,30.43,NE,45,0.4,2.7,87,0.00,,,0.00,VWS V13.01,2013-05-31 11:45:00,
2013-05-31 07:50:00,59.7,55.8,30.43,NE,45,0.4,2.7,86,0.00,,,0.00,VWS V13.01,2013-05-31 11:50:00,
2013-05-31 07:55:00,60.4,55.8,30.43,NE,45,0.4,2.7,86,0.00,,,0.00,VWS V13.01,2013-05-31 11:55:00,
2013-05-31 08:00:00,60.9,55.8,30.43,NE,45,0.4,2.7,86,0.00,,,0.00,VWS V13.01,2013-05-31 12:00:00,
2013-05-31 08:05:00,60.9,57.3,30.43,NE,45,0.4,2.7,86,0.00,,,0.00,VWS V13.01,2013-05-31 12:05:00,
2013-05-31 08:10:00,61.8,57.6,30.43,NE,45,0.4,2.7,86,0.00,,,0.00,VWS V13.01,2013-05-31 12:10:00,
2013-05-31 08:15:00,62.2,58.2,30.43,NE,45,0.4,2.7,86,0.00,,,0.00,VWS V13.01,2013-05-31 12:15:00,
2013-05-31 08:21:00,62.6,58.5,30.43,NE,45,0.4,2.7,86,0.00,,,0.00,VWS V13.01,2013-05-31 12:21:00,
2013-05-31 08:26:00,63.1,58.8,30.43,NE,45,0.4,2.7,86,0.00,,,0.00,VWS V13.01,2013-05-31 12:26:00,
2013-05-31 08:31:00,63.3,59.2,30.43,NE,45,0.4,2.7,86,0.00,,,0.00,VWS V13.01,2013-05-31 12:31:00,
2013-05-31 08:36:00,64.0,59.4,30.43,NE,45,0.4,2.7,85,0.00,,,0.00,VWS V13.01,2013-05-31 12:36:00,
2013-05-31 08:41:00,64.2,59.6,30.43,NE,45,0.4,2.7,85,0.00,,,0.00,VWS V13.01,2013-05-31 12:41:00,
2013-05-31 08:46:00,64.5,59.6,30.43,NE,45,0.4,2.7,85,0.00,,,0.00,VWS V13.01,2013-05-31 12:46:00,
2013-05-31 08:51:00,65.1,59.8,30.43,NE,45,0.4,2.7,84,0.00,,,0.00,VWS V13.01,2013-05-31 12:51:00,
2013-05-31 08:56:00,65.4,60.1,30.43,NE,45,0.4,2.7,83,0.00,,,0.00,VWS V13.01,2013-05-31 12:56:00,
2013-05-31 09:01:00,65.8,60.3,30.43,SW,225,0.4,2.7,82,0.00,,,0.00,VWS V13.01,2013-05-31 13:01:00,
2013-05-31 09:06:00,66.0,60.0,30.43,SW,225,0.4,2.7,82,0.00,,CLR,0.00,VWS V13.01,2013-05-31 13:06:00,
2013-05-31 09:11:00,66.5,60.2,30.44,WSW,248,3.1,3.1,80,0.00,,CLR,0.00,VWS V13.01,2013-05-31 13:11:00,
2013-05-31 09:16:00,66.7,60.3,30.44,SW,225,3.1,3.1,80,0.00,,CLR,0.00,VWS V13.01,2013-05-31 13:16:00,
2013-05-31 09:21:00,67.2,60.4,30.44,WSW,248,3.1,3.1,79,0.00,,CLR,0.00,VWS V13.01,2013-05-31 13:21:00,
2013-05-31 09:26:00,67.4,60.7,30.43,SW,225,1.7,2.7,79,0.00,,CLR,0.00,VWS V13.01,2013-05-31 13:26:00,
2013-05-31 09:31:00,67.6,61.1,30.44,WSW,248,1.7,2.7,78,0.00,,CLR,0.00,VWS V13.01,2013-05-31 13:31:00,
2013-05-31 09:36:00,68.1,61.0,30.44,WSW,248,1.7,2.7,78,0.00,,CLR,0.00,VWS V13.01,2013-05-31 13:36:00,
2013-05-31 09:42:00,68.3,61.0,30.43,SW,225,1.7,2.7,78,0.00,,CLR,0.00,VWS V13.01,2013-05-31 13:42:00,
2013-05-31 09:47:00,68.7,61.2,30.44,WSW,248,2.4,2.7,77,0.00,,CLR,0.00,VWS V13.01,2013-05-31 13:47:00,
2013-05-31 09:52:00,69.2,61.1,30.43,SW,225,1.1,2.7,75,0.00,,CLR,0.00,VWS V13.01,2013-05-31 13:52:00,
2013-05-31 09:57:00,69.4,60.8,30.43,SW,225,1.7,2.7,74,0.00,,CLR,0.00,VWS V13.01,2013-05-31 13:57:00,
2013-05-31 10:02:00,69.6,61.0,30.43,SE,135,1.7,2.7,74,0.00,,CLR,0.00,VWS V13.01,2013-05-31 14:02:00,
2013-05-31 10:07:00,70.1,61.4,30.43,SSW,202,2.4,2.7,74,0.00,,CLR,0.00,VWS V13.01,2013-05-31 14:07:00,
2013-05-31 10:12:00,70.3,61.6,30.43,SW,225,2.9,2.9,73,0.00,,CLR,0.00,VWS V13.01,2013-05-31 14:12:00,
2013-05-31 10:17:00,70.5,61.0,30.43,WSW,248,3.3,3.3,72,0.00,,CLR,0.00,VWS V13.01,2013-05-31 14:17:00,
2013-05-31 10:22:00,70.5,61.2,30.43,SW,225,0.6,2.7,72,0.00,,CLR,0.00,VWS V13.01,2013-05-31 14:22:00,
2013-05-31 10:27:00,70.8,61.3,30.43,West,270,0.6,2.7,72,0.00,,CLR,0.00,VWS V13.01,2013-05-31 14:27:00,
2013-05-31 10:32:00,71.2,61.7,30.44,West,270,2.4,2.7,72,0.00,,CLR,0.00,VWS V13.01,2013-05-31 14:32:00,
2013-05-31 10:37:00,71.2,61.5,30.44,West,270,6.4,6.4,72,0.00,,CLR,0.00,VWS V13.01,2013-05-31 14:37:00,
2013-05-31 10:42:00,71.2,61.7,30.44,WNW,292,2.4,2.7,72,0.00,,CLR,0.00,VWS V13.01,2013-05-31 14:42:00,
2013-05-31 10:47:00,71.2,61.9,30.44,SW,225,2.4,2.7,72,0.00,,CLR,0.00,VWS V13.01,2013-05-31 14:47:00,
2013-05-31 10:52:00,71.4,62.2,30.43,West,270,2.4,2.7,72,0.00,,CLR,0.00,VWS V13.01,2013-05-31 14:52:00,
2013-05-31 10:57:00,72.1,62.4,30.43,West,270,3.5,3.5,71,0.00,,CLR,0.00,VWS V13.01,2013-05-31 14:57:00,
2013-05-31 11:02:00,72.3,62.4,30.44,WSW,248,3.5,3.5,71,0.00,,CLR,0.00,VWS V13.01,2013-05-31 15:02:00,
2013-05-31 11:08:00,72.6,62.4,30.44,West,270,2.4,2.7,71,0.00,,CLR,0.00,VWS V13.01,2013-05-31 15:08:00,
2013-05-31 11:13:00,73.0,62.8,30.44,WNW,292,6.7,6.7,70,0.00,,CLR,0.00,VWS V13.01,2013-05-31 15:13:00,
2013-05-31 11:18:00,73.5,62.9,30.44,West,270,4.2,4.2,70,0.00,,CLR,0.00,VWS V13.01,2013-05-31 15:18:00,
2013-05-31 11:23:00,74.1,62.3,30.44,WSW,248,2.6,2.7,68,0.00,,CLR,0.00,VWS V13.01,2013-05-31 15:23:00,
2013-05-31 11:28:00,74.1,62.6,30.43,WSW,248,5.1,5.1,67,0.00,,CLR,0.00,VWS V13.01,2013-05-31 15:28:00,
2013-05-31 11:33:00,74.4,62.7,30.44,SSW,202,2.6,2.7,67,0.00,,CLR,0.00,VWS V13.01,2013-05-31 15:33:00,
2013-05-31 11:38:00,74.8,62.5,30.43,WSW,248,5.3,5.3,66,0.00,,CLR,0.00,VWS V13.01,2013-05-31 15:38:00,
2013-05-31 11:43:00,75.0,62.5,30.42,SW,225,0.6,2.7,65,0.00,,CLR,0.00,VWS V13.01,2013-05-31 15:43:00,
2013-05-31 11:48:00,75.0,62.5,30.42,SSW,202,1.7,2.7,64,0.00,,CLR,0.00,VWS V13.01,2013-05-31 15:48:00,
2013-05-31 11:53:00,75.7,62.5,30.42,WNW,292,5.3,5.3,64,0.00,,CLR,0.00,VWS V13.01,2013-05-31 15:53:00,
2013-05-31 11:58:00,76.1,63.3,30.42,WSW,248,4.9,4.9,64,0.00,,CLR,0.00,VWS V13.01,2013-05-31 15:58:00,
2013-05-31 12:03:00,76.4,62.7,30.42,WSW,248,2.6,2.7,63,0.00,,CLR,0.00,VWS V13.01,2013-05-31 16:03:00,
2013-05-31 12:08:00,76.6,62.8,30.42,WNW,292,2.6,2.7,62,0.00,,CLR,0.00,VWS V13.01,2013-05-31 16:08:00,
2013-05-31 12:13:00,77.1,63.0,30.42,SW,225,6.9,6.9,60,0.00,,CLR,0.00,VWS V13.01,2013-05-31 16:13:00,
2013-05-31 12:18:00,77.1,62.2,30.42,WSW,248,5.3,5.3,61,0.00,,CLR,0.00,VWS V13.01,2013-05-31 16:18:00,
2013-05-31 12:23:00,77.5,62.5,30.42,SSW,202,1.1,2.7,60,0.00,,CLR,0.00,VWS V13.01,2013-05-31 16:23:00,
2013-05-31 12:28:00,78.0,62.7,30.42,WSW,248,1.1,2.7,58,0.00,,CLR,0.00,VWS V13.01,2013-05-31 16:28:00,
2013-05-31 12:33:00,78.6,61.6,30.41,SSW,202,2.6,2.7,57,0.00,,CLR,0.00,VWS V13.01,2013-05-31 16:33:00,
2013-05-31 12:39:00,79.3,61.9,30.41,SSW,202,4.0,4.0,55,0.00,,CLR,0.00,VWS V13.01,2013-05-31 16:39:00,
2013-05-31 12:44:00,79.5,60.9,30.41,SSW,202,4.0,4.0,55,0.00,,CLR,0.00,VWS V13.01,2013-05-31 16:44:00,
2013-05-31 12:49:00,79.5,60.9,30.41,WNW,292,3.8,3.8,55,0.00,,CLR,0.00,VWS V13.01,2013-05-31 16:49:00,
2013-05-31 12:54:00,79.3,60.3,30.41,WSW,248,2.9,2.9,51,0.00,,CLR,0.00,VWS V13.01,2013-05-31 16:54:00,
2013-05-31 12:59:00,79.3,60.3,30.41,SW,225,4.4,4.4,51,0.00,,CLR,0.00,VWS V13.01,2013-05-31 16:59:00,
2013-05-31 13:04:00,79.5,59.6,30.41,SSW,202,6.0,6.0,52,0.00,,CLR,0.00,VWS V13.01,2013-05-31 17:04:00,
2013-05-31 13:09:00,79.5,59.6,30.41,SW,225,0.8,2.7,52,0.00,,CLR,0.00,VWS V13.01,2013-05-31 17:09:00,
2013-05-31 13:14:00,79.5,60.5,30.41,WSW,248,2.6,2.7,51,0.00,,CLR,0.00,VWS V13.01,2013-05-31 17:14:00,
2013-05-31 13:19:00,79.7,61.0,30.41,WSW,248,0.8,2.7,52,0.00,,CLR,0.00,VWS V13.01,2013-05-31 17:19:00,
2013-05-31 13:24:00,80.2,61.0,30.41,SW,225,1.3,2.7,53,0.00,,CLR,0.00,VWS V13.01,2013-05-31 17:24:00,
2013-05-31 13:29:00,80.2,61.7,30.41,NNW,338,4.2,4.2,52,0.00,,CLR,0.00,VWS V13.01,2013-05-31 17:29:00,
2013-05-31 13:34:00,80.4,61.4,30.40,WSW,248,4.2,4.2,53,0.00,,CLR,0.00,VWS V13.01,2013-05-31 17:34:00,
2013-05-31 13:39:00,80.4,61.5,30.40,SW,225,2.0,2.7,53,0.00,,CLR,0.00,VWS V13.01,2013-05-31 17:39:00,
2013-05-31 13:44:00,80.4,61.5,30.40,SW,225,2.4,2.7,53,0.00,,CLR,0.00,VWS V13.01,2013-05-31 17:44:00,
2013-05-31 13:49:00,80.4,61.8,30.40,SSW,202,2.6,2.7,53,0.00,,CLR,0.00,VWS V13.01,2013-05-31 17:49:00,
2013-05-31 13:54:00,80.9,61.8,30.39,WNW,292,2.6,2.7,51,0.00,,CLR,0.00,VWS V13.01,2013-05-31 17:54:00,
2013-05-31 13:59:00,80.9,62.0,30.39,NNW,338,2.6,2.7,51,0.00,,CLR,0.00,VWS V13.01,2013-05-31 17:59:00,
2013-05-31 14:04:00,80.9,61.3,30.38,NNW,338,4.4,4.4,51,0.00,,CLR,0.00,VWS V13.01,2013-05-31 18:04:00,
2013-05-31 14:09:00,81.3,61.3,30.38,West,270,5.8,5.8,50,0.00,,CLR,0.00,VWS V13.01,2013-05-31 18:09:00,
2013-05-31 14:14:00,80.9,60.6,30.38,West,270,4.9,4.9,51,0.00,,CLR,0.00,VWS V13.01,2013-05-31 18:14:00,
2013-05-31 14:19:00,80.6,61.5,30.38,WSW,248,6.4,6.4,51,0.00,,CLR,0.00,VWS V13.01,2013-05-31 18:19:00,
2013-05-31 14:24:00,80.7,60.8,30.38,WSW,248,2.6,2.7,51,0.00,,CLR,0.00,VWS V13.01,2013-05-31 18:24:00,
2013-05-31 14:29:00,80.7,60.3,30.38,West,270,5.1,5.1,51,0.00,,CLR,0.00,VWS V13.01,2013-05-31 18:29:00,
2013-05-31 14:34:00,80.7,60.3,30.37,WSW,248,5.1,5.1,51,0.00,,CLR,0.00,VWS V13.01,2013-05-31 18:34:00,
2013-05-31 14:39:00,80.9,60.9,30.37,NW,315,5.1,5.1,50,0.00,,CLR,0.00,VWS V13.01,2013-05-31 18:39:00,
2013-05-31 14:44:00,81.1,60.7,30.37,WSW,248,1.7,2.7,50,0.00,,CLR,0.00,VWS V13.01,2013-05-31 18:44:00,
2013-05-31 14:49:00,81.1,60.7,30.36,SSW,202,6.0,6.0,49,0.00,,CLR,0.00,VWS V13.01,2013-05-31 18:49:00,
2013-05-31 14:55:00,81.1,60.7,30.36,NW,315,3.3,3.3,50,0.00,,CLR,0.00,VWS V13.01,2013-05-31 18:55:00,
2013-05-31 15:00:00,81.1,60.9,30.36,SSW,202,2.2,2.7,50,0.00,,CLR,0.00,VWS V13.01,2013-05-31 19:00:00,
2013-05-31 15:05:00,81.1,60.5,30.35,WSW,248,1.7,2.7,50,0.00,,CLR,0.00,VWS V13.01,2013-05-31 19:05:00,
2013-05-31 15:10:00,81.6,60.6,30.35,WSW,248,2.6,2.7,49,0.00,,CLR,0.00,VWS V13.01,2013-05-31 19:10:00,
2013-05-31 15:15:00,81.6,60.8,30.35,SSW,202,1.5,2.7,49,0.00,,CLR,0.00,VWS V13.01,2013-05-31 19:15:00,
2013-05-31 15:20:00,81.6,61.0,30.35,West,270,6.9,6.9,49,0.00,,CLR,0.00,VWS V13.01,2013-05-31 19:20:00,
2013-05-31 15:25:00,81.6,61.0,30.35,SW,225,5.3,5.3,49,0.00,,CLR,0.00,VWS V13.01,2013-05-31 19:25:00,
2013-05-31 15:30:00,81.6,61.0,30.35,SW,225,0.6,2.7,49,0.00,,CLR,0.00,VWS V13.01,2013-05-31 19:30:00,
2013-05-31 15:35:00,81.6,61.2,30.35,WSW,248,2.4,2.7,49,0.00,,CLR,0.00,VWS V13.01,2013-05-31 19:35:00,
2013-05-31 15:40:00,82.2,61.2,30.35,SW,225,2.4,2.7,49,0.00,,CLR,0.00,VWS V13.01,2013-05-31 19:40:00,
2013-05-31 15:45:00,82.2,62.0,30.34,WSW,248,0.2,2.7,49,0.00,,CLR,0.00,VWS V13.01,2013-05-31 19:45:00,
2013-05-31 15:50:00,82.2,61.3,30.34,WSW,248,1.3,2.7,49,0.00,,CLR,0.00,VWS V13.01,2013-05-31 19:50:00,
2013-05-31 15:55:00,82.4,61.0,30.34,SW,225,1.3,2.7,49,0.00,,CLR,0.00,VWS V13.01,2013-05-31 19:55:00,
2013-05-31 16:00:00,82.4,61.2,30.35,West,270,5.1,5.1,49,0.00,,CLR,0.00,VWS V13.01,2013-05-31 20:00:00,
2013-05-31 16:05:00,81.3,60.9,30.34,South,180,3.1,3.1,49,0.00,,CLR,0.00,VWS V13.01,2013-05-31 20:05:00,
2013-05-31 16:10:00,81.3,60.5,30.34,WSW,248,0.2,2.7,50,0.00,,CLR,0.00,VWS V13.01,2013-05-31 20:10:00,
2013-05-31 16:15:00,80.7,60.9,30.34,SW,225,0.2,2.7,51,0.00,,CLR,0.00,VWS V13.01,2013-05-31 20:15:00,
2013-05-31 16:20:00,81.3,60.6,30.34,WSW,248,1.1,2.7,50,0.00,,CLR,0.00,VWS V13.01,2013-05-31 20:20:00,
2013-05-31 16:26:00,80.7,60.9,30.34,South,180,2.4,2.7,52,0.00,,CLR,0.00,VWS V13.01,2013-05-31 20:26:00,
2013-05-31 16:31:00,81.3,61.7,30.33,South,180,2.4,2.7,50,0.00,,CLR,0.00,VWS V13.01,2013-05-31 20:31:00,
2013-05-31 16:36:00,81.6,60.9,30.33,SSW,202,1.1,2.7,50,0.00,,SCT065,0.00,VWS V13.01,2013-05-31 20:36:00,
2013-05-31 16:41:00,81.3,61.5,30.33,SW,225,4.2,4.2,50,0.00,,SCT065,0.00,VWS V13.01,2013-05-31 20:41:00,
2013-05-31 16:46:00,81.3,61.2,30.33,SSW,202,2.9,2.9,50,0.00,,SCT065,0.00,VWS V13.01,2013-05-31 20:46:00,
2013-05-31 16:51:00,82.4,60.8,30.33,South,180,1.7,2.7,49,0.00,,SCT065,0.00,VWS V13.01,2013-05-31 20:51:00,
2013-05-31 16:56:00,82.5,60.8,30.33,SE,135,0.4,2.7,48,0.00,,SCT065,0.00,VWS V13.01,2013-05-31 20:56:00,
2013-05-31 17:01:00,82.4,60.8,30.33,South,180,6.7,6.7,48,0.00,,SCT065,0.00,VWS V13.01,2013-05-31 21:01:00,
2013-05-31 17:06:00,82.7,61.0,30.32,SSE,158,2.6,2.7,48,0.00,,SCT065,0.00,VWS V13.01,2013-05-31 21:06:00,
2013-05-31 17:11:00,82.7,60.0,30.32,SSE,158,1.3,2.7,48,0.00,,SCT065,0.00,VWS V13.01,2013-05-31 21:11:00,
2013-05-31 17:16:00,81.8,60.4,30.32,South,180,2.9,2.9,49,0.00,,SCT065,0.00,VWS V13.01,2013-05-31 21:16:00,
2013-05-31 17:22:00,82.0,60.6,30.32,SSE,158,1.7,2.7,48,0.00,,SCT065,0.00,VWS V13.01,2013-05-31 21:22:00,
2013-05-31 17:27:00,81.5,60.5,30.32,SW,225,1.1,2.7,49,0.00,,SCT065,0.00,VWS V13.01,2013-05-31 21:27:00,
2013-05-31 17:32:00,81.5,60.3,30.32,SSW,202,0.8,2.7,50,0.00,,SCT065,0.00,VWS V13.01,2013-05-31 21:32:00,
2013-05-31 17:37:00,81.3,61.7,30.32,WSW,248,2.9,2.9,50,0.00,,SCT065,0.00,VWS V13.01,2013-05-31 21:37:00,
2013-05-31 17:42:00,81.5,60.9,30.32,SW,225,2.6,2.7,49,0.00,,CLR,0.00,VWS V13.01,2013-05-31 21:42:00,
2013-05-31 17:47:00,81.1,60.2,30.32,SSW,202,3.3,3.3,49,0.00,,CLR,0.00,VWS V13.01,2013-05-31 21:47:00,
2013-05-31 17:53:00,80.7,60.3,30.32,South,180,3.1,3.1,50,0.00,,CLR,0.00,VWS V13.01,2013-05-31 21:53:00,
2013-05-31 17:58:00,80.6,61.4,30.32,SW,225,3.1,3.1,52,0.00,,CLR,0.00,VWS V13.01,2013-05-31 21:58:00,
2013-05-31 18:03:00,80.9,62.0,30.32,SSE,158,0.6,2.7,54,0.00,,CLR,0.00,VWS V13.01,2013-05-31 22:03:00,
2013-05-31 18:09:00,81.1,62.4,30.32,ESE,112,4.6,4.6,53,0.00,,CLR,0.00,VWS V13.01,2013-05-31 22:09:00,
2013-05-31 18:14:00,81.3,62.5,30.32,ENE,68,8.2,8.2,53,0.00,,CLR,0.00,VWS V13.01,2013-05-31 22:14:00,
2013-05-31 18:19:00,81.3,62.9,30.32,South,180,8.2,8.2,54,0.00,,CLR,0.00,VWS V13.01,2013-05-31 22:19:00,
2013-05-31 18:24:00,81.1,63.4,30.32,SSE,158,8.2,8.2,54,0.00,,CLR,0.00,VWS V13.01,2013-05-31 22:24:00,
2013-05-31 18:29:00,81.1,63.4,30.32,SSW,202,8.2,8.2,55,0.00,,CLR,0.00,VWS V13.01,2013-05-31 22:29:00,
2013-05-31 18:34:00,81.1,63.1,30.32,SSW,202,8.2,8.2,54,0.00,,CLR,0.00,VWS V13.01,2013-05-31 22:34:00,
2013-05-31 18:39:00,81.5,63.3,30.33,SSE,158,1.7,2.7,54,0.00,,CLR,0.00,VWS V13.01,2013-05-31 22:39:00,
2013-05-31 18:44:00,81.5,62.2,30.32,SSW,202,2.9,2.9,54,0.00,,SCT075,0.00,VWS V13.01,2013-05-31 22:44:00,
2013-05-31 18:49:00,81.5,61.1,30.32,SSW,202,2.4,2.7,51,0.00,,SCT075,0.00,VWS V13.01,2013-05-31 22:49:00,
2013-05-31 18:54:00,81.3,60.3,30.32,SE,135,3.8,3.8,50,0.00,,SCT075,0.00,VWS V13.01,2013-05-31 22:54:00,
2013-05-31 18:59:00,81.1,60.7,30.33,WSW,248,4.6,4.6,50,0.00,,SCT075,0.00,VWS V13.01,2013-05-31 22:59:00,
2013-05-31 19:04:00,81.1,60.5,30.33,SSW,202,4.2,4.2,50,0.00,,SCT075,0.00,VWS V13.01,2013-05-31 23:04:00,
2013-05-31 19:09:00,80.9,59.8,30.33,WSW,248,4.4,4.4,50,0.00,,SCT075,0.00,VWS V13.01,2013-05-31 23:09:00,
2013-05-31 19:14:00,80.6,59.9,30.33,SE,135,2.6,2.7,50,0.00,,CLR,0.00,VWS V13.01,2013-05-31 23:14:00,
2013-05-31 19:19:00,79.8,59.4,30.33,SW,225,2.6,2.7,50,0.00,,CLR,0.00,VWS V13.01,2013-05-31 23:19:00,
2013-05-31 19:24:00,79.5,58.7,30.33,SSW,202,5.5,5.5,50,0.00,,CLR,0.00,VWS V13.01,2013-05-31 23:24:00,
2013-05-31 19:29:00,78.9,59.0,30.33,South,180,1.3,2.7,50,0.00,,CLR,0.00,VWS V13.01,2013-05-31 23:29:00,
2013-05-31 19:34:00,78.9,59.0,30.33,SW,225,3.8,3.8,50,0.00,,CLR,0.00,VWS V13.01,2013-05-31 23:34:00,
2013-05-31 19:39:00,78.6,59.3,30.33,SW,225,0.6,2.7,52,0.00,,CLR,0.00,VWS V13.01,2013-05-31 23:39:00,
2013-05-31 19:44:00,78.4,59.0,30.33,WSW,248,0.8,2.7,52,0.00,,CLR,0.00,VWS V13.01,2013-05-31 23:44:00,
2013-05-31 19:49:00,78.4,59.2,30.34,SW,225,0.8,2.7,52,0.00,,CLR,0.00,VWS V13.01,2013-05-31 23:49:00,
2013-05-31 19:54:00,78.4,58.8,30.33,South,180,0.8,2.7,52,0.00,,CLR,0.00,VWS V13.01,2013-05-31 23:54:00,
2013-05-31 19:59:00,77.3,59.2,30.33,SSW,202,0.8,2.7,54,0.00,,CLR,0.00,VWS V13.01,2013-05-31 23:59:00,
2013-05-31 20:04:00,77.1,59.4,30.33,SSW,202,2.6,2.7,54,0.00,,CLR,0.00,VWS V13.01,2013-06-01 00:04:00,
2013-05-31 20:09:00,77.1,59.2,30.33,WSW,248,3.8,3.8,54,0.00,,CLR,0.00,VWS V13.01,2013-06-01 00:09:00,
2013-05-31 20:14:00,77.1,59.4,30.33,SSW,202,1.5,2.7,54,0.00,,CLR,0.00,VWS V13.01,2013-06-01 00:14:00,
2013-05-31 20:19:00,76.2,59.3,30.33,SSE,158,1.3,2.7,56,0.00,,CLR,0.00,VWS V13.01,2013-06-01 00:19:00,
2013-05-31 20:24:00,76.1,59.1,30.33,WSW,248,2.6,2.7,56,0.00,,CLR,0.00,VWS V13.01,2013-06-01 00:24:00,
2013-05-31 20:29:00,75.9,58.9,30.34,South,180,1.7,2.7,56,0.00,,CLR,0.00,VWS V13.01,2013-06-01 00:29:00,
2013-05-31 20:34:00,75.7,58.7,30.34,SW,225,1.7,2.7,56,0.00,,CLR,0.00,VWS V13.01,2013-06-01 00:34:00,
2013-05-31 20:39:00,75.5,58.5,30.34,SSW,202,1.3,2.7,56,0.00,,CLR,0.00,VWS V13.01,2013-06-01 00:39:00,
2013-05-31 20:44:00,75.3,58.4,30.33,SSE,158,2.0,2.7,56,0.00,,CLR,0.00,VWS V13.01,2013-06-01 00:44:00,
2013-05-31 20:49:00,75.3,58.8,30.34,SSE,158,0.8,2.7,56,0.00,,CLR,0.00,VWS V13.01,2013-06-01 00:49:00,
2013-05-31 20:54:00,75.0,58.6,30.34,South,180,4.6,4.6,57,0.00,,CLR,0.00,VWS V13.01,2013-06-01 00:54:00,
2013-05-31 20:59:00,75.0,58.4,30.34,South,180,0.2,2.7,57,0.00,,CLR,0.00,VWS V13.01,2013-06-01 00:59:00,
2013-05-31 21:04:00,74.4,58.7,30.34,SSW,202,4.2,4.2,58,0.00,,CLR,0.00,VWS V13.01,2013-06-01 01:04:00,
2013-05-31 21:09:00,74.4,58.6,30.34,SW,225,4.2,4.2,58,0.00,,CLR,0.00,VWS V13.01,2013-06-01 01:09:00,
2013-05-31 21:14:00,74.3,58.4,30.34,South,180,4.2,4.2,58,0.00,,CLR,0.00,VWS V13.01,2013-06-01 01:14:00,
2013-05-31 21:19:00,74.3,58.7,30.34,South,180,4.2,4.2,58,0.00,,CLR,0.00,VWS V13.01,2013-06-01 01:19:00,
2013-05-31 21:24:00,73.9,58.3,30.34,South,180,4.2,4.2,59,0.00,,CLR,0.00,VWS V13.01,2013-06-01 01:24:00,
2013-05-31 21:29:00,73.5,58.0,30.34,South,180,4.2,4.2,59,0.00,,CLR,0.00,VWS V13.01,2013-06-01 01:29:00,
2013-05-31 21:34:00,73.5,58.3,30.34,South,180,4.2,4.2,59,0.00,,CLR,0.00,VWS V13.01,2013-06-01 01:34:00,
2013-05-31 21:39:00,73.0,57.9,30.34,South,180,4.2,4.2,60,0.00,,CLR,0.00,VWS V13.01,2013-06-01 01:39:00,
2013-05-31 21:44:00,72.6,57.8,30.35,South,180,4.2,4.2,60,0.00,,CLR,0.00,VWS V13.01,2013-06-01 01:44:00,
2013-05-31 21:49:00,72.5,57.7,30.34,South,180,4.2,4.2,60,0.00,,CLR,0.00,VWS V13.01,2013-06-01 01:49:00,
2013-05-31 21:54:00,72.5,57.7,30.35,South,180,4.2,4.2,60,0.00,,CLR,0.00,VWS V13.01,2013-06-01 01:54:00,
2013-05-31 21:59:00,71.9,57.5,30.35,South,180,4.2,4.2,61,0.00,,CLR,0.00,VWS V13.01,2013-06-01 01:59:00,
2013-05-31 22:04:00,71.9,57.3,30.35,South,180,4.2,4.2,61,0.00,,CLR,0.00,VWS V13.01,2013-06-01 02:04:00,
2013-05-31 22:09:00,71.9,57.5,30.35,South,180,4.2,4.2,61,0.00,,CLR,0.00,VWS V13.01,2013-06-01 02:09:00,
2013-05-31 22:14:00,71.2,57.2,30.35,South,180,4.2,4.2,62,0.00,,CLR,0.00,VWS V13.01,2013-06-01 02:14:00,
2013-05-31 22:19:00,71.2,57.2,30.35,South,180,4.2,4.2,62,0.00,,CLR,0.00,VWS V13.01,2013-06-01 02:19:00,
2013-05-31 22:24:00,71.2,57.6,30.35,South,180,4.2,4.2,62,0.00,,CLR,0.00,VWS V13.01,2013-06-01 02:24:00,
2013-05-31 22:29:00,70.8,57.5,30.35,South,180,4.2,4.2,63,0.00,,CLR,0.00,VWS V13.01,2013-06-01 02:29:00,
2013-05-31 22:34:00,70.8,57.5,30.35,South,180,4.2,4.2,63,0.00,,CLR,0.00,VWS V13.01,2013-06-01 02:34:00,
2013-05-31 22:39:00,70.8,57.3,30.35,South,180,4.2,4.2,63,0.00,,CLR,0.00,VWS V13.01,2013-06-01 02:39:00,
2013-05-31 22:44:00,70.5,57.8,30.35,South,180,4.2,4.2,64,0.00,,BKN085,0.00,VWS V13.01,2013-06-01 02:44:00,
2013-05-31 22:49:00,70.5,57.6,30.34,South,180,4.2,4.2,64,0.00,,BKN085,0.00,VWS V13.01,2013-06-01 02:49:00,
2013-05-31 22:54:00,70.3,58.0,30.34,South,180,4.2,4.2,64,0.00,,BKN085,0.00,VWS V13.01,2013-06-01 02:54:00,
2013-05-31 22:59:00,70.3,57.8,30.34,SW,225,4.2,4.2,65,0.00,,BKN085,0.00,VWS V13.01,2013-06-01 02:59:00,
2013-05-31 23:04:00,70.3,57.9,30.34,South,180,4.2,4.2,65,0.00,,BKN085,0.00,VWS V13.01,2013-06-01 03:04:00,
2013-05-31 23:09:00,69.8,57.8,30.34,SSE,158,1.3,2.7,66,0.00,,BKN085,0.00,VWS V13.01,2013-06-01 03:09:00,
2013-05-31 23:14:00,69.8,57.9,30.35,South,180,1.1,2.7,66,0.00,,BKN085,0.00,VWS V13.01,2013-06-01 03:14:00,
2013-05-31 23:19:00,69.9,58.2,30.35,SSE,158,1.1,2.7,66,0.00,,BKN085,0.00,VWS V13.01,2013-06-01 03:19:00,
2013-05-31 23:24:00,70.1,58.4,30.35,SSE,158,1.1,2.7,66,0.00,,BKN085,0.00,VWS V13.01,2013-06-01 03:24:00,
2013-05-31 23:29:00,70.3,58.4,30.35,SSE,158,1.1,2.7,66,0.00,,BKN085,0.00,VWS V13.01,2013-06-01 03:29:00,
2013-05-31 23:34:00,70.3,58.2,30.34,SSE,158,1.1,2.7,66,0.00,,BKN085,0.00,VWS V13.01,2013-06-01 03:34:00,
2013-05-31 23:39:00,70.1,58.0,30.34,SSE,158,1.1,2.7,66,0.00,,BKN085,0.00,VWS V13.01,2013-06-01 03:39:00,
2013-05-31 23:44:00,69.9,57.9,30.34,SSE,158,1.1,2.7,66,0.00,,CLR,0.00,VWS V13.01,2013-06-01 03:44:00,
2013-05-31 23:49:00,69.9,57.6,30.34,SSE,158,1.1,2.7,66,0.00,,CLR,0.00,VWS V13.01,2013-06-01 03:49:00,
2013-05-31 23:54:00,69.9,57.2,30.34,SSE,158,1.1,2.7,66,0.00,,CLR,0.00,VWS V13.01,2013-06-01 03:54:00,
2013-05-31 23:59:00,69.9,57.3,30.34,SSE,158,1.1,2.7,66,0.00,,CLR,0.00,VWS V13.01,2013-06-01 03:59:00,